CDT,Max TemperatureF,Mean TemperatureF,Min TemperatureF,Max Dew PointF,MeanDew PointF,Min DewpointF,Max Humidity, Mean Humidity, Min Humidity, Max Sea Level PressureIn, Mean Sea Level PressureIn, Min Sea Level PressureIn, Max VisibilityMiles, Mean VisibilityMiles, Min VisibilityMiles, Max Wind SpeedMPH, Mean Wind SpeedMPH, Max Gust SpeedMPH,PrecipitationIn, CloudCover, Events, WindDirDegrees
2012-10-1,66,52,39,45,36,28,93,59,24,30.24,30.09,29.73,10,10,10,23,11,31,0.00,0,,229
2012-10-2,66,54,41,41,36,30,76,50,37,29.91,29.70,29.55,10,10,10,25,18,34,0.00,1,,286
2012-10-3,42,38,35,39,34,32,100,83,66,30.39,30.15,29.91,10,8,2,20,12,28,0.22,6,Rain,360
2012-10-4,41,34,28,32,26,21,100,77,49,30.41,30.39,30.36,10,10,10,17,10,21,0.00,5,,329
2012-10-5,39,30,21,23,19,16,86,66,39,30.43,30.40,30.37,10,10,10,20,9,23,0.00,3,,331
2012-10-6,50,32,15,23,19,12,93,63,30,30.43,30.29,30.03,10,10,10,20,9,25,0.00,0,,240
2012-10-7,53,40,28,39,30,25,93,68,35,30.02,29.86,29.61,10,10,4,17,9,18,0.03,3,Rain,244
2012-10-8,48,42,37,41,34,23,93,71,46,29.82,29.70,29.58,10,10,9,29,17,38,0.00,5,Rain,304
2012-10-9,44,36,28,32,27,21,100,74,45,30.04,29.99,29.82,10,10,1,26,17,38,0.32,7,Rain-Snow,303
2012-10-10,39,32,24,36,30,19,100,88,69,30.12,29.95,29.84,10,9,3,16,9,22,0.06,6,Rain-Snow,54
2012-10-11,37,30,23,32,26,18,100,83,48,30.35,30.27,30.13,10,10,9,14,9,17,0.00,3,Rain,328
2012-10-12,59,42,26,34,29,23,86,64,36,30.21,29.86,29.62,10,10,10,23,12,31,0.00,1,,185
2012-10-13,55,44,32,36,34,28,93,67,44,29.95,29.78,29.60,10,10,8,16,11,22,0.00,0,,300
2012-10-14,66,49,32,41,36,30,100,70,32,29.97,29.91,29.79,10,10,7,13,7,,0.00,2,Rain,226
2012-10-15,71,56,39,39,38,36,87,53,29,29.78,29.63,29.58,10,10,0,17,11,21,0.00,2,,248
2012-10-16,62,48,33,52,42,32,100,84,45,29.62,29.37,29.18,10,10,4,21,10,30,0.02,3,Rain,208
2012-10-17,48,44,39,45,36,32,100,82,61,29.62,29.41,29.18,10,9,5,40,28,56,0.20,7,Rain,303
2012-10-18,41,39,37,37,36,32,100,86,70,30.05,29.89,29.62,10,10,5,34,27,46,0.00,8,Rain,324
2012-10-19,48,40,33,32,31,28,87,72,46,30.01,29.78,29.51,10,10,10,17,8,23,0.00,4,,173
2012-10-20,68,52,37,37,33,27,81,58,23,29.67,29.50,29.45,10,10,10,18,14,23,0.00,1,,238
2012-10-21,48,36,23,32,26,19,100,69,37,30.06,29.92,29.69,10,10,10,12,7,,0.00,1,Rain,296
2012-10-22,39,31,23,36,30,21,100,85,61,30.08,30.00,29.86,10,9,1,20,6,24,1.21,7,Rain-Snow,110
2012-10-23,37,34,32,36,32,27,100,97,80,29.85,29.74,29.67,10,6,0,23,13,32,0.71,7,Fog-Rain-Snow,268
2012-10-24,33,30,28,27,25,23,93,80,70,30.06,29.97,29.85,10,10,10,23,16,29,0.00,8,,274
2012-10-25,32,30,28,27,24,21,86,75,69,30.27,30.16,30.06,10,10,10,26,19,34,0.00,8,,300
2012-10-26,32,28,24,25,21,14,93,75,48,30.31,30.28,30.23,10,10,2,20,14,25,0.06,8,Rain-Snow,291
2012-10-27,28,22,15,21,14,10,93,73,47,30.27,30.24,30.22,10,10,10,8,4,,0.00,4,,348
2012-10-28,32,24,15,30,21,10,100,82,64,30.24,30.10,29.99,10,8,1,22,9,25,0.24,8,Rain-Snow,110
2012-10-29,35,32,30,36,32,28,100,98,93,30.02,29.99,29.97,10,5,0,14,10,18,0.00,8,Fog-Rain,106
2012-10-30,51,42,32,46,39,32,100,93,71,29.96,29.93,29.91,10,6,0,10,7,,0.00,4,Fog-Rain,195
2012-10-31,46,37,28,41,33,25,100,90,75,30.18,30.06,29.90,10,10,7,23,12,29,0.00,7,Rain,341